ARIANE 5 R/B, 32769

Orbit data source: Space-Track

ARIANE 5 R/B, 32769 is space debris in HEO originally from a launch on Fri, 18 Apr 2008 UTC launched from the French Guiana (FRGUI). Debris objects in space refer to the collection of defunct objects orbiting the Earth. Examples of debris include non-operational satellites, rocket bodies, and fragments generated from explosions, collisions, or faulty payload assembly.

Loading next visibility...
Identifier
32769, 2008-018C
Orbit
HEO
Country
Flag of FRFR
Related business
Manufacturer
EADS/LV
Mission
Spacecraft
Bus & Motor
ESC-A, Unknown motor
Mass
~5,000 kg wet, ~5,000 kg dry
Launch date (UTC)
2008-04-18 (18 years ago)
Launch vehicle
Unknown
Launch site
French Guiana (FRGUI)
Object type
Payload
Rocket body
Debris
Shape & HBR
Cyl + 1 Nozzle, 3.5 m
Radar Cross Section
41.627 m², Large (>1 m²)

Expand to show TLE details & history
Last TLE update: 10 hours ago

TLE from 10 hours ago
0 ARIANE 5 R/B
1 32769U 08018C   26094.86204534  .00006551  00000-0  16292-2 0  9996
2 32769   1.4343 179.6025 6910359 175.3686 198.4395  2.75775657164532
Epoch: 2026-04-04T20:41Z
TLE epoch observation values (Epoch: 2026-04-04T20:41:20.717Z)
Latitude
0.00001°
Longitude
36.15641°
Altitude
29,688.076 km
Speed
1.883 km/s
True Right ascension
11h 58m 40s
True Declination
0° 00' 00"
Sunlit
Object was in daylight at epoch
Visualization orbit readout
Latitude
Unknown
Longitude
Unknown
Altitude
Unknown
Speed
Unknown
Apparent Right ascension
Unknown
Apparent Declination
Unknown
Sunlit
N/A
Visualization observer readout
Local Sidereal Time
12:09:43
Azimuth
Unknown
Elevation
Unknown
Doppler factor
Unknown
Orbital elements
Apogee altitude
29,954.255 km
Perigee altitude
260.045 km
Semi-major axis
21,485.287 km
Eccentricity
0.69104
Inclination
1.4343°
RAAN
179.6025°
Arg. of periapsis
175.3686°
True anomaly
184.68412°
Mean anomaly
198.4395°
Eccentric anomaly
190.93131°
Mean motion
0.68918 °/min
Orbital period
522.36 mins
BSTAR
0.0016292
Loading maneuver chart data...
Computing Atmospheric mass density...
Loading historical data...
Loading historical data...
Loading historical data...
Loading historical data...
Loading historical data...
Loading historical data...
Loading historical data...
Other satellites on launch #18 in the year 2008 (2008-04-18 UTC)

Documentation

Showing up to 5 results
|